Location: Breungeshain
(50.5000°N, 9.2000°E)
Time: 00:07:14
(UTC+00:00)

ISS - Pass Details

Date: 24 May 2018
Orbit: 402 x 407 km, 51.6° (Epoch: 26 May)

Event Time Altitude Azimuth Distance (km) Brightness Sun altitude
Rises 00:56:04 0° 286° (WNW) 2,321 -0.1 -15.7°
Reaches altitude 10° 00:58:14 10° 278° (W) 1,459 -1.2 -15.5°
Enters shadow 01:00:17 28° 249° (WSW) 781 -2.8 -15.4°
